EW7678 Weather Reports


Display with metric or nautical units.
time (UTC)temp
F
wind
direction
speed
MPH
gust
MPH
rain 1hr
in
rain 24hr
in
rain mn
in
humidity
%
barometer
mb
20260506044539 55 248 0.0 0.0 0.00 0.00 0.00 63 1009.4
20260506043043 56 248 0.0 0.0 0.00 0.00 0.00 61 1009.4
20260506041536 58 248 0.0 0.0 0.00 0.00 0.00 58 1009.3
20260506040038 60 248 0.0 0.0 0.00 0.00 0.00 55 1009.2
20260506034535 61 248 0.0 0.0 0.00 0.00 0.00 52 1009.1
20260506033035 62 248 0.0 0.0 0.00 0.00 0.00 52 1008.9
20260506031540 65 249 0.0 0.0 0.00 0.00 0.00 44 1008.8
20260506030034 67 248 0.0 0.0 0.00 0.00 0.00 42 1008.7
20260506024536 70 249 0.0 0.0 0.00 0.00 0.00 35 1008.6
20260506023050 72 248 0.0 1.0 0.00 0.00 0.00 35 1008.6
20260506021555 75 248 0.0 0.0 0.00 0.00 0.00 29 1008.7
20260506020029 77 248 0.0 1.0 0.00 0.00 0.00 26 1008.7
20260506014530 78 17 0.0 1.0 0.00 0.00 0.00 23 1008.8
20260506013033 80 148 0.0 0.0 0.00 0.00 0.00 24 1008.8
20260506011526 80 109 0.0 2.0 0.00 0.00 0.00 21 1008.9
20260506010026 81 178 0.0 1.0 0.00 0.00 0.00 22 1009.0
20260506004527 81 233 0.0 4.0 0.00 0.00 0.00 22 1009.1
20260506003022 82 193 0.0 2.0 0.00 0.00 0.00 20 1009.2
20260506001521 81 117 0.0 2.0 0.00 0.00 0.00 19 1009.3
20260506000021 82 111 1.0 6.0 0.00 0.00 0.00 20 1009.5
20260505234516 82 115 0.0 3.0 0.00 0.00 0.00 19 1009.7
20260505233014 82 279 0.0 3.0 0.00 0.00 0.00 19 1009.9
20260505231529 83 75 0.0 2.0 0.00 0.00 0.00 20 1010.0
20260505230020 83 352 1.0 3.0 0.00 0.00 0.00 18 1010.3
20260505224512 83 105 1.0 4.0 0.00 0.00 0.00 17 1010.5
20260505223005 83 106 0.0 3.0 0.00 0.00 0.00 18 1010.6
20260505221502 82 287 0.0 2.0 0.00 0.00 0.00 20 1010.9
20260505214600 82 105 0.0 3.0 0.00 0.00 0.00 18 1011.3
20260505213054 81 117 1.0 5.0 0.00 0.00 0.00 20 1011.4
20260505211554 80 93 1.0 5.0 0.00 0.00 0.00 20 1011.7
20260505210053 80 105 1.0 4.0 0.00 0.00 0.00 21 1011.9
20260505204548 79 136 1.0 4.0 0.00 0.00 0.00 21 1012.1
20260505203106 79 119 1.0 3.0 0.00 0.00 0.00 22 1012.3
20260505201549 79 270 1.0 3.0 0.00 0.00 0.00 21 1012.4
20260505200049 79 146 1.0 4.0 0.00 0.00 0.00 22 1012.7
20260505194540 77 107 0.0 3.0 0.00 0.00 0.00 23 1012.9
20260505193038 77 226 0.0 3.0 0.00 0.00 0.00 24 1013.0
20260505191536 76 98 0.0 3.0 0.00 0.00 0.00 26 1013.1
20260505190038 75 357 1.0 3.0 0.00 0.00 0.00 28 1013.2
20260505184534 74 82 1.0 4.0 0.00 0.00 0.00 28 1013.6
20260505183027 73 90 0.0 4.0 0.00 0.00 0.00 28 1013.6
20260505181522 72 347 1.0 5.0 0.00 0.00 0.00 31 1013.9
20260505180021 71 346 1.0 3.0 0.00 0.00 0.00 31 1014.0
20260505174527 71 91 1.0 3.0 0.00 0.00 0.00 33 1014.1
20260505173014 69 318 1.0 4.0 0.00 0.00 0.00 34 1014.2
20260505171510 68 93 1.0 4.0 0.00 0.00 0.00 35 1014.3
20260505170015 67 274 1.0 3.0 0.00 0.00 0.00 38 1014.4
20260505164504 66 347 0.0 2.0 0.00 0.00 0.00 40 1014.4
20260505163103 65 342 0.0 1.0 0.00 0.00 0.00 43 1014.5
20260505161615 64 71 0.0 3.0 0.00 0.00 0.00 45 1014.6
20260505153100 61 115 0.0 1.0 0.00 0.00 0.00 49 1014.7
20260505151558 60 275 0.0 1.0 0.00 0.00 0.00 51 1014.7
20260505124525 37 121 0.0 0.0 0.00 0.00 0.00 86 1013.9
20260505123021 37 121 0.0 0.0 0.00 0.00 0.00 85 1013.7
20260505121519 38 121 0.0 0.0 0.00 0.00 0.00 84 1013.6
20260505120019 38 121 0.0 0.0 0.00 0.00 0.00 83 1013.4
20260505114517 39 121 0.0 0.0 0.00 0.00 0.00 82 1013.3
20260505113017 39 121 0.0 0.0 0.00 0.00 0.00 82 1013.2
20260505111509 40 121 0.0 0.0 0.00 0.00 0.00 81 1013.2
20260505101558 42 121 0.0 0.0 0.00 0.00 0.00 78 1012.9
20260505100058 42 121 0.0 0.0 0.00 0.00 0.00 78 1012.7
20260505094550 43 121 0.0 0.0 0.00 0.00 0.00 75 1012.7
20260505093047 44 121 0.0 0.0 0.00 0.00 0.00 75 1012.5
20260505091544 44 120 0.0 0.0 0.00 0.00 0.00 74 1012.4
20260505090055 44 121 0.0 0.0 0.00 0.00 0.00 71 1012.4
20260505084545 46 121 0.0 0.0 0.00 0.00 0.00 70 1012.3
20260505083037 47 121 0.0 0.0 0.00 0.00 0.00 70 1012.2
20260505081536 48 121 0.0 0.0 0.00 0.00 0.00 68 1012.1
20260505080028 49 121 0.0 0.0 0.00 0.00 0.00 64 1011.9
20260505074524 50 121 0.0 0.0 0.00 0.00 0.00 64 1011.8
20260505073020 51 121 0.0 0.0 0.00 0.00 0.00 63 1011.6
20260505071518 53 121 0.0 1.0 0.00 0.00 0.00 61 1011.6
20260505070016 53 124 0.0 0.0 0.00 0.00 0.00 60 1011.4
20260505064514 55 114 0.0 0.0 0.00 0.00 0.00 57 1011.3
20260505063015 56 114 0.0 1.0 0.00 0.00 0.00 55 1011.2
20260505061513 57 117 0.0 2.0 0.00 0.00 0.00 56 1011.0
20260505060024 57 248 0.0 1.0 0.00 0.00 0.00 54 1011.0
20260505054524 58 311 0.0 0.0 0.00 0.00 0.00 48 1010.8
20260505053012 59 306 0.0 0.0 0.00 0.00 0.00 46 1010.5